Time,TemperatureF,DewpointF,PressureIn,WindDirection,WindDirectionDegrees,WindSpeedMPH,WindSpeedGustMPH,Humidity,HourlyPrecipIn,Conditions,Clouds,dailyrainin,SolarRadiationWatts/m^2,SoftwareType,DateUTC
2013-05-28 00:01:00,55.6,50.8,30.15,SSW,199,0.0,0.0,84,0.00,,,0.00,0.00,VWS V14.01,2013-05-28 04:01:00,
2013-05-28 00:02:00,55.6,50.8,30.15,SSW,199,0.0,0.0,84,0.00,,,0.00,0.00,VWS V14.01,2013-05-28 04:02:00,
2013-05-28 00:03:00,55.6,51.2,30.15,SSW,199,0.0,0.0,85,0.00,,,0.00,0.00,VWS V14.01,2013-05-28 04:03:00,
2013-05-28 00:08:00,55.5,51.1,30.16,SSW,199,0.0,0.0,85,0.00,,,0.00,0.00,VWS V14.01,2013-05-28 04:08:00,
2013-05-28 00:13:00,55.4,51.3,30.16,SSW,199,0.0,0.0,86,0.00,,,0.00,0.00,VWS V14.01,2013-05-28 04:13:00,
2013-05-28 00:18:00,55.4,51.3,30.16,West,265,0.0,0.0,86,0.00,,,0.00,0.00,VWS V14.01,2013-05-28 04:18:00,
2013-05-28 00:23:00,55.3,51.5,30.16,West,265,0.0,0.0,87,0.00,,,0.00,0.00,VWS V14.01,2013-05-28 04:23:00,
2013-05-28 00:28:00,55.3,51.5,30.16,West,265,0.0,0.0,87,0.00,,,0.00,0.00,VWS V14.01,2013-05-28 04:28:00,
2013-05-28 00:34:00,55.3,51.5,30.17,West,264,0.0,0.0,87,0.00,,,0.00,0.00,VWS V14.01,2013-05-28 04:34:00,
2013-05-28 00:39:00,55.2,51.4,30.17,West,265,0.0,1.0,87,0.00,,,0.00,0.00,VWS V14.01,2013-05-28 04:39:00,
2013-05-28 00:44:00,55.2,51.4,30.16,West,265,0.0,0.0,87,0.00,,,0.00,0.00,VWS V14.01,2013-05-28 04:44:00,
2013-05-28 00:49:00,55.2,51.4,30.16,West,265,0.0,0.0,87,0.00,,,0.00,0.00,VWS V14.01,2013-05-28 04:49:00,
2013-05-28 00:54:00,55.2,51.7,30.16,West,265,0.0,0.0,88,0.00,,,0.00,0.00,VWS V14.01,2013-05-28 04:54:00,
2013-05-28 00:59:00,55.2,51.7,30.16,West,265,0.0,0.0,88,0.00,,,0.00,0.00,VWS V14.01,2013-05-28 04:59:00,
2013-05-28 01:04:00,55.2,51.7,30.15,West,265,0.0,0.0,88,0.00,,,0.00,0.00,VWS V14.01,2013-05-28 05:04:00,
2013-05-28 01:09:00,55.3,51.8,30.15,West,264,0.0,0.0,88,0.00,,,0.00,0.00,VWS V14.01,2013-05-28 05:09:00,
2013-05-28 01:14:00,55.3,51.8,30.15,West,265,0.0,0.0,88,0.00,,,0.00,0.00,VWS V14.01,2013-05-28 05:14:00,
2013-05-28 01:19:00,55.3,51.8,30.15,West,265,0.0,0.0,88,0.00,,,0.00,0.00,VWS V14.01,2013-05-28 05:19:00,
2013-05-28 01:24:00,55.4,51.9,30.15,West,265,0.0,0.0,88,0.00,,,0.00,0.00,VWS V14.01,2013-05-28 05:24:00,
2013-05-28 01:30:00,55.3,52.1,30.15,West,265,0.0,0.0,89,0.00,,,0.00,0.00,VWS V14.01,2013-05-28 05:30:00,
2013-05-28 01:35:00,55.4,52.2,30.15,West,264,0.0,0.0,89,0.00,,,0.00,0.00,VWS V14.01,2013-05-28 05:35:00,
2013-05-28 01:40:00,55.4,52.2,30.15,West,265,0.0,0.0,89,0.00,,,0.00,0.00,VWS V14.01,2013-05-28 05:40:00,
2013-05-28 01:45:00,55.3,52.1,30.14,West,265,0.0,0.0,89,0.00,,,0.00,0.00,VWS V14.01,2013-05-28 05:45:00,
2013-05-28 01:50:00,55.4,52.2,30.14,West,265,0.0,0.0,89,0.00,,,0.00,0.00,VWS V14.01,2013-05-28 05:50:00,
2013-05-28 01:55:00,55.3,52.1,30.14,West,264,0.0,0.0,89,0.00,,,0.00,0.00,VWS V14.01,2013-05-28 05:55:00,
2013-05-28 02:00:00,55.3,52.1,30.15,West,265,0.0,0.0,89,0.00,,,0.00,0.00,VWS V14.01,2013-05-28 06:00:00,
2013-05-28 02:05:00,55.4,52.2,30.14,West,265,0.0,0.0,89,0.00,,,0.00,0.00,VWS V14.01,2013-05-28 06:05:00,
2013-05-28 02:10:00,55.4,52.2,30.14,West,264,0.0,0.0,89,0.00,,,0.00,0.00,VWS V14.01,2013-05-28 06:10:00,
2013-05-28 02:15:00,55.4,52.2,30.14,West,264,0.0,0.0,89,0.00,,,0.00,0.00,VWS V14.01,2013-05-28 06:15:00,
2013-05-28 02:20:00,55.3,52.1,30.14,West,265,0.0,0.0,89,0.00,,,0.00,0.00,VWS V14.01,2013-05-28 06:20:00,
2013-05-28 02:25:00,55.4,52.5,30.14,West,265,0.0,0.0,90,0.00,,,0.00,0.00,VWS V14.01,2013-05-28 06:25:00,
2013-05-28 02:30:00,55.4,52.5,30.14,West,264,0.0,0.0,90,0.00,,,0.00,0.00,VWS V14.01,2013-05-28 06:30:00,
2013-05-28 02:35:00,55.3,52.4,30.14,West,265,0.0,0.0,90,0.00,,,0.00,0.00,VWS V14.01,2013-05-28 06:35:00,
2013-05-28 02:40:00,55.4,52.5,30.13,West,265,0.0,0.0,90,0.00,,,0.00,0.00,VWS V14.01,2013-05-28 06:40:00,
2013-05-28 02:46:00,55.3,52.4,30.13,West,265,0.0,0.0,90,0.00,,,0.00,0.00,VWS V14.01,2013-05-28 06:46:00,
2013-05-28 02:51:00,55.4,52.5,30.12,West,265,0.0,0.0,90,0.00,,,0.00,0.00,VWS V14.01,2013-05-28 06:51:00,
2013-05-28 02:56:00,55.3,52.4,30.12,West,265,0.0,0.0,90,0.00,,,0.00,0.00,VWS V14.01,2013-05-28 06:56:00,
2013-05-28 03:01:00,55.3,52.7,30.12,West,264,0.0,0.0,91,0.00,,,0.00,0.00,VWS V14.01,2013-05-28 07:01:00,
2013-05-28 03:06:00,55.3,52.7,30.12,West,265,0.0,0.0,91,0.00,,,0.00,0.00,VWS V14.01,2013-05-28 07:06:00,
2013-05-28 03:11:00,55.3,52.7,30.11,West,265,0.0,0.0,91,0.00,,,0.00,0.00,VWS V14.01,2013-05-28 07:11:00,
2013-05-28 03:16:00,55.3,52.7,30.11,West,265,0.0,0.0,91,0.00,,,0.00,0.00,VWS V14.01,2013-05-28 07:16:00,
2013-05-28 03:21:00,55.2,52.6,30.11,West,265,0.0,0.0,91,0.00,,,0.00,0.00,VWS V14.01,2013-05-28 07:21:00,
2013-05-28 03:26:00,55.1,52.5,30.11,West,264,0.0,0.0,91,0.00,,,0.00,0.00,VWS V14.01,2013-05-28 07:26:00,
2013-05-28 03:31:00,55.1,52.5,30.12,West,264,0.0,0.0,91,0.00,,,0.00,0.00,VWS V14.01,2013-05-28 07:31:00,
2013-05-28 03:36:00,55.1,52.5,30.11,West,265,0.0,0.0,91,0.00,,,0.00,0.00,VWS V14.01,2013-05-28 07:36:00,
2013-05-28 03:42:00,55.1,52.5,30.12,West,265,0.0,0.0,91,0.00,,,0.00,0.00,VWS V14.01,2013-05-28 07:42:00,
2013-05-28 03:47:00,55.2,52.6,30.13,West,264,0.0,0.0,91,0.00,,,0.00,0.00,VWS V14.01,2013-05-28 07:47:00,
2013-05-28 03:52:00,55.2,52.6,30.13,West,264,0.0,0.0,91,0.00,,,0.00,0.00,VWS V14.01,2013-05-28 07:52:00,
2013-05-28 03:57:00,55.3,52.7,30.13,West,265,0.0,0.0,91,0.00,,,0.00,0.00,VWS V14.01,2013-05-28 07:57:00,
2013-05-28 04:02:00,55.3,52.7,30.13,West,265,0.0,0.0,91,0.00,,,0.00,0.00,VWS V14.01,2013-05-28 08:02:00,
2013-05-28 04:07:00,55.3,53.0,30.13,SSW,213,1.0,2.0,92,0.01,,,0.01,0.00,VWS V14.01,2013-05-28 08:07:00,
2013-05-28 04:12:00,55.3,52.7,30.12,SSW,213,4.0,4.0,91,0.01,,,0.01,0.00,VWS V14.01,2013-05-28 08:12:00,
2013-05-28 04:17:00,55.2,52.6,30.12,South,189,1.0,4.0,91,0.01,,,0.01,0.00,VWS V14.01,2013-05-28 08:17:00,
2013-05-28 04:22:00,55.3,52.4,30.12,SSE,156,0.0,3.0,90,0.02,,,0.02,0.00,VWS V14.01,2013-05-28 08:22:00,
2013-05-28 04:27:00,55.4,52.5,30.12,South,186,0.0,5.0,90,0.02,,,0.02,0.00,VWS V14.01,2013-05-28 08:27:00,
2013-05-28 04:32:00,55.4,52.5,30.12,South,189,0.0,3.0,90,0.02,,,0.02,0.00,VWS V14.01,2013-05-28 08:32:00,
2013-05-28 04:37:00,55.4,52.5,30.12,South,189,0.0,1.0,90,0.02,,,0.02,0.00,VWS V14.01,2013-05-28 08:37:00,
2013-05-28 04:42:00,55.4,52.5,30.12,South,189,0.0,0.0,90,0.02,,,0.02,0.00,VWS V14.01,2013-05-28 08:42:00,
2013-05-28 04:48:00,55.4,52.5,30.12,South,189,0.0,1.0,90,0.02,,,0.02,0.00,VWS V14.01,2013-05-28 08:48:00,
2013-05-28 04:53:00,55.3,52.4,30.11,South,189,0.0,0.0,90,0.02,,,0.02,0.00,VWS V14.01,2013-05-28 08:53:00,
2013-05-28 04:58:00,55.3,52.7,30.11,South,189,0.0,0.0,91,0.02,,,0.02,0.00,VWS V14.01,2013-05-28 08:58:00,
2013-05-28 05:03:00,55.3,52.4,30.11,South,189,0.0,0.0,90,0.02,,,0.02,0.00,VWS V14.01,2013-05-28 09:03:00,
2013-05-28 05:08:00,55.2,52.6,30.11,South,188,0.0,0.0,91,0.01,,,0.02,0.00,VWS V14.01,2013-05-28 09:08:00,
2013-05-28 05:13:00,55.2,52.6,30.11,South,188,0.0,0.0,91,0.01,,,0.02,0.00,VWS V14.01,2013-05-28 09:13:00,
2013-05-28 05:18:00,55.2,52.6,30.11,South,189,0.0,0.0,91,0.01,,,0.02,0.00,VWS V14.01,2013-05-28 09:18:00,
2013-05-28 05:23:00,55.2,52.6,30.11,South,189,0.0,0.0,91,0.01,,,0.02,0.00,VWS V14.01,2013-05-28 09:23:00,
2013-05-28 05:28:00,55.2,52.9,30.11,South,189,0.0,0.0,92,0.01,,,0.03,0.00,VWS V14.01,2013-05-28 09:28:00,
2013-05-28 05:33:00,55.1,52.8,30.11,South,188,0.0,0.0,92,0.01,,,0.03,0.00,VWS V14.01,2013-05-28 09:33:00,
2013-05-28 05:38:00,55.1,52.8,30.11,South,189,0.0,0.0,92,0.01,,,0.03,0.00,VWS V14.01,2013-05-28 09:38:00,
2013-05-28 05:43:00,55.1,52.8,30.11,South,189,0.0,0.0,92,0.01,,,0.03,0.00,VWS V14.01,2013-05-28 09:43:00,
2013-05-28 05:49:00,55.1,52.8,30.11,South,189,0.0,0.0,92,0.01,,,0.03,0.00,VWS V14.01,2013-05-28 09:49:00,
2013-05-28 05:54:00,55.0,53.0,30.11,South,189,0.0,0.0,93,0.01,,,0.03,0.00,VWS V14.01,2013-05-28 09:54:00,
2013-05-28 05:59:00,55.0,53.0,30.11,South,189,0.0,0.0,93,0.01,,,0.03,0.00,VWS V14.01,2013-05-28 09:59:00,
2013-05-28 06:04:00,55.0,53.0,30.11,South,188,0.0,0.0,93,0.01,,,0.03,5.00,VWS V14.01,2013-05-28 10:04:00,
2013-05-28 06:09:00,54.9,52.9,30.12,South,188,0.0,0.0,93,0.01,,,0.03,9.00,VWS V14.01,2013-05-28 10:09:00,
2013-05-28 06:14:00,54.9,52.9,30.12,South,189,0.0,0.0,93,0.01,,,0.03,11.00,VWS V14.01,2013-05-28 10:14:00,
2013-05-28 06:19:00,54.9,53.2,30.12,South,189,0.0,2.0,94,0.01,,,0.03,14.00,VWS V14.01,2013-05-28 10:19:00,
2013-05-28 06:24:00,54.8,53.1,30.12,NW,316,0.0,2.0,94,0.01,,,0.03,18.00,VWS V14.01,2013-05-28 10:24:00,
2013-05-28 06:29:00,54.7,53.0,30.12,NW,321,1.0,4.0,94,0.01,,,0.03,21.00,VWS V14.01,2013-05-28 10:29:00,
2013-05-28 06:34:00,54.6,52.9,30.13,NNW,340,1.0,5.0,94,0.00,,,0.03,23.00,VWS V14.01,2013-05-28 10:34:00,
2013-05-28 06:39:00,54.6,52.9,30.13,NNW,340,1.0,3.0,94,0.00,,,0.03,21.00,VWS V14.01,2013-05-28 10:39:00,
2013-05-28 06:44:00,54.6,52.9,30.13,NNW,340,0.0,1.0,94,0.00,,,0.03,18.00,VWS V14.01,2013-05-28 10:44:00,
2013-05-28 06:50:00,54.6,52.9,30.13,NNW,340,1.0,1.0,94,0.00,,,0.03,16.00,VWS V14.01,2013-05-28 10:50:00,
2013-05-28 06:55:00,54.6,52.9,30.12,NNW,340,0.0,0.0,94,0.00,,,0.03,9.00,VWS V14.01,2013-05-28 10:55:00,
2013-05-28 07:00:00,54.7,53.0,30.12,NNW,340,0.0,0.0,94,0.02,,,0.05,9.00,VWS V14.01,2013-05-28 11:00:00,
2013-05-28 07:05:00,54.7,53.0,30.12,NNW,340,0.0,0.0,94,0.02,,,0.05,12.00,VWS V14.01,2013-05-28 11:05:00,
2013-05-28 07:10:00,54.8,53.1,30.11,NNW,340,0.0,0.0,94,0.03,,,0.06,14.00,VWS V14.01,2013-05-28 11:10:00,
2013-05-28 07:15:00,54.8,53.1,30.11,NNW,340,0.0,0.0,94,0.04,,,0.07,33.00,VWS V14.01,2013-05-28 11:15:00,
2013-05-28 07:20:00,54.9,53.5,30.11,NNW,340,0.0,0.0,95,0.05,,,0.08,49.00,VWS V14.01,2013-05-28 11:20:00,
2013-05-28 07:25:00,55.0,53.6,30.11,NNW,340,0.0,0.0,95,0.05,,,0.08,60.00,VWS V14.01,2013-05-28 11:25:00,
2013-05-28 07:30:00,55.0,53.6,30.12,NNW,340,0.0,0.0,95,0.05,,,0.08,70.00,VWS V14.01,2013-05-28 11:30:00,
2013-05-28 07:35:00,55.1,53.7,30.11,NNW,340,0.0,0.0,95,0.05,,,0.08,76.00,VWS V14.01,2013-05-28 11:35:00,
2013-05-28 07:40:00,55.3,53.9,30.12,NNW,340,0.0,0.0,95,0.05,,,0.08,72.00,VWS V14.01,2013-05-28 11:40:00,
2013-05-28 07:45:00,55.3,53.9,30.12,NNW,340,2.0,3.0,95,0.05,,,0.08,69.00,VWS V14.01,2013-05-28 11:45:00,
2013-05-28 07:51:00,55.3,53.9,30.12,NNW,340,1.0,1.0,95,0.05,,,0.08,69.00,VWS V14.01,2013-05-28 11:51:00,
2013-05-28 07:56:00,55.3,53.9,30.12,NNW,340,0.0,0.0,95,0.05,,,0.08,72.00,VWS V14.01,2013-05-28 11:56:00,
2013-05-28 08:01:00,55.4,54.3,30.12,NNW,340,0.0,0.0,96,0.03,,,0.08,102.00,VWS V14.01,2013-05-28 12:01:00,
2013-05-28 08:06:00,55.5,54.4,30.12,NNW,340,0.0,0.0,96,0.03,,,0.08,107.00,VWS V14.01,2013-05-28 12:06:00,
2013-05-28 08:11:00,55.7,54.6,30.12,NNW,340,0.0,1.0,96,0.02,,,0.08,118.00,VWS V14.01,2013-05-28 12:11:00,
2013-05-28 08:16:00,55.8,54.7,30.12,NNW,340,0.0,0.0,96,0.01,,,0.08,144.00,VWS V14.01,2013-05-28 12:16:00,
2013-05-28 08:21:00,56.0,54.9,30.12,SW,227,0.0,1.0,96,0.00,,,0.08,128.00,VWS V14.01,2013-05-28 12:21:00,
2013-05-28 08:26:00,56.2,55.1,30.12,SW,228,0.0,0.0,96,0.00,,,0.08,121.00,VWS V14.01,2013-05-28 12:26:00,
2013-05-28 08:31:00,56.3,55.2,30.12,SW,228,0.0,0.0,96,0.00,,,0.08,123.00,VWS V14.01,2013-05-28 12:31:00,
2013-05-28 08:36:00,56.4,55.3,30.12,WSW,252,0.0,1.0,96,0.00,,,0.08,144.00,VWS V14.01,2013-05-28 12:36:00,
2013-05-28 08:42:00,56.6,55.5,30.12,WSW,252,0.0,1.0,96,0.00,,,0.08,167.00,VWS V14.01,2013-05-28 12:42:00,
2013-05-28 08:47:00,56.7,55.6,30.13,WSW,252,0.0,0.0,96,0.00,,,0.08,135.00,VWS V14.01,2013-05-28 12:47:00,
2013-05-28 08:52:00,56.8,55.7,30.13,WSW,257,0.0,2.0,96,0.00,,,0.08,151.00,VWS V14.01,2013-05-28 12:52:00,
2013-05-28 08:57:00,57.0,55.9,30.13,NNW,336,3.0,4.0,96,0.00,,,0.08,165.00,VWS V14.01,2013-05-28 12:57:00,
2013-05-28 09:02:00,57.2,56.1,30.14,NNW,341,4.0,5.0,96,0.00,,,0.08,200.00,VWS V14.01,2013-05-28 13:02:00,
2013-05-28 09:07:00,57.5,56.4,30.15,North,350,2.0,5.0,96,0.00,,,0.08,181.00,VWS V14.01,2013-05-28 13:07:00,
2013-05-28 09:12:00,57.6,56.5,30.15,NNW,330,2.0,5.0,96,0.00,,,0.08,176.00,VWS V14.01,2013-05-28 13:12:00,
2013-05-28 09:17:00,57.6,56.5,30.15,NNW,330,0.0,5.0,96,0.00,,,0.08,176.00,VWS V14.01,2013-05-28 13:17:00,
2013-05-28 09:22:00,57.7,56.6,30.14,North,351,0.0,3.0,96,0.00,,,0.08,174.00,VWS V14.01,2013-05-28 13:22:00,
2013-05-28 09:27:00,57.8,56.7,30.14,North,350,0.0,1.0,96,0.00,,,0.08,160.00,VWS V14.01,2013-05-28 13:27:00,
2013-05-28 09:33:00,58.1,57.0,30.13,North,350,0.0,1.0,96,0.00,,,0.08,158.00,VWS V14.01,2013-05-28 13:33:00,
2013-05-28 09:38:00,58.3,57.2,30.13,North,351,0.0,0.0,96,0.00,,,0.08,176.00,VWS V14.01,2013-05-28 13:38:00,
2013-05-28 09:43:00,58.7,57.6,30.13,North,351,0.0,1.0,96,0.00,,,0.08,195.00,VWS V14.01,2013-05-28 13:43:00,
2013-05-28 09:48:00,59.0,57.9,30.12,North,351,0.0,1.0,96,0.00,,,0.08,165.00,VWS V14.01,2013-05-28 13:48:00,
2013-05-28 09:53:00,59.0,57.9,30.12,SSE,148,2.0,3.0,96,0.00,,,0.08,118.00,VWS V14.01,2013-05-28 13:53:00,
2013-05-28 09:58:00,59.1,57.7,30.12,SSE,157,0.0,1.0,95,0.00,,,0.08,91.00,VWS V14.01,2013-05-28 13:58:00,
2013-05-28 10:03:00,59.3,57.9,30.11,SE,146,0.0,4.0,95,0.00,,,0.08,97.00,VWS V14.01,2013-05-28 14:03:00,
2013-05-28 10:08:00,59.3,57.9,30.11,SE,136,0.0,3.0,95,0.01,,,0.09,104.00,VWS V14.01,2013-05-28 14:08:00,
2013-05-28 10:13:00,59.3,57.9,30.11,SE,138,0.0,3.0,95,0.01,,,0.09,84.00,VWS V14.01,2013-05-28 14:13:00,
2013-05-28 10:18:00,59.4,58.0,30.11,SE,146,0.0,1.0,95,0.01,,,0.09,84.00,VWS V14.01,2013-05-28 14:18:00,
2013-05-28 10:23:00,59.5,58.1,30.11,SE,146,0.0,0.0,95,0.01,,,0.09,81.00,VWS V14.01,2013-05-28 14:23:00,
2013-05-28 10:29:00,59.5,58.1,30.11,SE,146,0.0,1.0,95,0.01,,,0.09,79.00,VWS V14.01,2013-05-28 14:29:00,
2013-05-28 10:34:00,59.5,57.8,30.11,SE,146,0.0,0.0,94,0.01,,,0.09,148.00,VWS V14.01,2013-05-28 14:34:00,
2013-05-28 10:39:00,59.6,58.2,30.11,SE,146,0.0,0.0,95,0.01,,,0.09,165.00,VWS V14.01,2013-05-28 14:39:00,
2013-05-28 10:44:00,59.8,58.4,30.11,NNW,338,0.0,1.0,95,0.01,,,0.09,197.00,VWS V14.01,2013-05-28 14:44:00,
2013-05-28 10:49:00,60.2,58.8,30.11,NW,314,0.0,2.0,95,0.01,,,0.09,243.00,VWS V14.01,2013-05-28 14:49:00,
2013-05-28 10:54:00,60.5,59.1,30.10,West,263,1.0,3.0,95,0.01,,,0.09,308.00,VWS V14.01,2013-05-28 14:54:00,
2013-05-28 10:59:00,61.2,59.8,30.11,West,263,1.0,2.0,95,0.01,,,0.09,343.00,VWS V14.01,2013-05-28 14:59:00,
2013-05-28 11:04:00,61.4,59.7,30.12,NW,313,0.0,5.0,94,0.01,,,0.09,334.00,VWS V14.01,2013-05-28 15:04:00,
2013-05-28 11:09:00,61.7,60.0,30.12,NW,313,0.0,3.0,94,0.00,,,0.09,294.00,VWS V14.01,2013-05-28 15:09:00,
2013-05-28 11:14:00,61.9,59.9,30.12,NW,326,0.0,4.0,93,0.00,,,0.09,306.00,VWS V14.01,2013-05-28 15:14:00,
2013-05-28 11:19:00,62.1,59.8,30.12,NNW,327,1.0,3.0,92,0.00,,,0.09,367.00,VWS V14.01,2013-05-28 15:19:00,
2013-05-28 11:24:00,62.4,60.0,30.11,WSW,240,0.0,1.0,92,0.00,,,0.09,357.00,VWS V14.01,2013-05-28 15:24:00,
2013-05-28 11:30:00,62.7,60.0,30.11,NE,48,0.0,1.0,91,0.00,,,0.09,302.00,VWS V14.01,2013-05-28 15:30:00,
2013-05-28 11:35:00,62.9,59.6,30.11,SW,225,0.0,1.0,89,0.00,,,0.09,250.00,VWS V14.01,2013-05-28 15:35:00,
2013-05-28 11:40:00,63.1,59.8,30.11,SW,225,0.0,0.0,89,0.00,,,0.09,248.00,VWS V14.01,2013-05-28 15:40:00,
2013-05-28 11:45:00,63.3,59.7,30.11,SW,225,0.0,1.0,88,0.00,,,0.09,299.00,VWS V14.01,2013-05-28 15:45:00,
2013-05-28 11:50:00,63.7,60.1,30.11,SW,225,0.0,1.0,88,0.00,,,0.09,323.00,VWS V14.01,2013-05-28 15:50:00,
2013-05-28 11:55:00,64.1,60.5,30.11,SW,229,0.0,2.0,88,0.00,,,0.09,360.00,VWS V14.01,2013-05-28 15:55:00,
2013-05-28 12:00:00,64.5,60.9,30.10,SW,229,0.0,1.0,88,0.00,,,0.09,364.00,VWS V14.01,2013-05-28 16:00:00,
2013-05-28 12:05:00,64.6,60.0,30.10,SW,229,0.0,0.0,85,0.00,,,0.09,432.00,VWS V14.01,2013-05-28 16:05:00,
2013-05-28 12:10:00,65.0,60.0,30.10,NNW,337,0.0,1.0,84,0.00,,,0.09,454.00,VWS V14.01,2013-05-28 16:10:00,
2013-05-28 12:15:00,65.3,60.3,30.10,NNW,337,0.0,3.0,84,0.00,,,0.09,482.00,VWS V14.01,2013-05-28 16:15:00,
2013-05-28 12:20:00,65.6,60.6,30.10,NNW,337,0.0,1.0,84,0.00,,,0.09,722.00,VWS V14.01,2013-05-28 16:20:00,
2013-05-28 12:25:00,66.6,62.0,30.10,NE,40,2.0,2.0,85,0.00,,,0.09,786.00,VWS V14.01,2013-05-28 16:25:00,
2013-05-28 12:30:00,66.8,60.8,30.10,ESE,114,0.0,0.0,81,0.00,,,0.09,833.00,VWS V14.01,2013-05-28 16:30:00,
2013-05-28 12:36:00,67.2,61.5,30.09,ESE,115,0.0,1.0,82,0.00,,,0.09,793.00,VWS V14.01,2013-05-28 16:36:00,
2013-05-28 12:41:00,67.9,61.9,30.09,SE,132,3.0,4.0,81,0.00,,,0.09,946.00,VWS V14.01,2013-05-28 16:41:00,
2013-05-28 12:46:00,68.3,60.8,30.09,SE,141,0.0,2.0,77,0.00,,,0.09,930.00,VWS V14.01,2013-05-28 16:46:00,
2013-05-28 12:51:00,68.8,62.0,30.09,SE,141,0.0,2.0,79,0.00,,,0.09,879.00,VWS V14.01,2013-05-28 16:51:00,
2013-05-28 12:56:00,69.4,62.2,30.09,SE,145,3.0,4.0,78,0.00,,,0.09,789.00,VWS V14.01,2013-05-28 16:56:00,
2013-05-28 13:01:00,69.4,62.2,30.09,SE,145,0.0,0.0,78,0.00,,,0.09,573.00,VWS V14.01,2013-05-28 17:01:00,
2013-05-28 13:06:00,69.7,62.5,30.10,SSE,147,0.0,2.0,78,0.00,,,0.09,909.00,VWS V14.01,2013-05-28 17:06:00,
2013-05-28 13:11:00,70.2,63.8,30.09,SSE,148,0.0,1.0,80,0.00,,,0.09,935.00,VWS V14.01,2013-05-28 17:11:00,
2013-05-28 13:16:00,71.2,64.4,30.09,NNE,18,1.0,1.0,79,0.00,,,0.09,888.00,VWS V14.01,2013-05-28 17:16:00,
2013-05-28 13:22:00,71.2,62.9,30.09,ENE,58,0.0,3.0,75,0.00,,,0.09,831.00,VWS V14.01,2013-05-28 17:22:00,
2013-05-28 13:27:00,71.3,63.0,30.09,WNW,300,0.0,3.0,75,0.00,,,0.09,791.00,VWS V14.01,2013-05-28 17:27:00,
2013-05-28 13:32:00,71.5,62.8,30.09,SSE,152,2.0,2.0,74,0.00,,,0.09,833.00,VWS V14.01,2013-05-28 17:32:00,
2013-05-28 13:37:00,71.6,63.6,30.09,South,173,0.0,3.0,76,0.00,,,0.09,744.00,VWS V14.01,2013-05-28 17:37:00,
2013-05-28 13:42:00,71.8,63.5,30.09,ENE,57,0.0,1.0,75,0.00,,,0.09,577.00,VWS V14.01,2013-05-28 17:42:00,
2013-05-28 13:47:00,71.9,63.5,30.09,East,84,2.0,2.0,75,0.00,,,0.09,608.00,VWS V14.01,2013-05-28 17:47:00,
2013-05-28 13:52:00,72.2,63.5,30.09,SSW,205,0.0,4.0,74,0.00,,,0.09,628.00,VWS V14.01,2013-05-28 17:52:00,
2013-05-28 13:57:00,72.4,63.7,30.09,SSW,205,1.0,3.0,74,0.00,,,0.09,599.00,VWS V14.01,2013-05-28 17:57:00,
2013-05-28 14:03:00,72.4,63.3,30.09,SSW,205,0.0,4.0,73,0.00,,,0.09,612.00,VWS V14.01,2013-05-28 18:03:00,
2013-05-28 14:08:00,72.5,64.5,30.08,ESE,123,0.0,3.0,76,0.00,,,0.09,490.00,VWS V14.01,2013-05-28 18:08:00,
2013-05-28 14:13:00,72.9,64.9,30.08,SSW,204,0.0,1.0,76,0.00,,,0.09,527.00,VWS V14.01,2013-05-28 18:13:00,
2013-05-28 14:18:00,73.2,64.8,30.08,WNW,292,0.0,1.0,75,0.00,,,0.09,830.00,VWS V14.01,2013-05-28 18:18:00,
2013-05-28 14:23:00,73.6,64.4,30.08,South,171,1.0,7.0,73,0.00,,,0.09,654.00,VWS V14.01,2013-05-28 18:23:00,
2013-05-28 14:28:00,73.7,65.3,30.07,ENE,70,3.0,3.0,75,0.00,,,0.09,684.00,VWS V14.01,2013-05-28 18:28:00,
2013-05-28 14:33:00,74.1,64.9,30.07,East,94,0.0,5.0,73,0.00,,,0.09,823.00,VWS V14.01,2013-05-28 18:33:00,
2013-05-28 14:38:00,74.7,66.3,30.07,SE,144,3.0,6.0,75,0.00,,,0.09,821.00,VWS V14.01,2013-05-28 18:38:00,
2013-05-28 14:43:00,74.8,65.6,30.07,SSE,157,1.0,3.0,73,0.00,,,0.09,777.00,VWS V14.01,2013-05-28 18:43:00,
2013-05-28 14:48:00,75.0,65.8,30.07,SSE,152,0.0,5.0,73,0.00,,,0.09,766.00,VWS V14.01,2013-05-28 18:48:00,
2013-05-28 14:54:00,75.1,65.9,30.06,South,177,4.0,4.0,73,0.00,,,0.09,708.00,VWS V14.01,2013-05-28 18:54:00,
2013-05-28 14:59:00,75.1,65.1,30.07,SW,221,0.0,6.0,71,0.00,,,0.09,780.00,VWS V14.01,2013-05-28 18:59:00,
2013-05-28 15:04:00,75.3,65.7,30.07,SE,146,0.0,6.0,72,0.00,,,0.09,775.00,VWS V14.01,2013-05-28 19:04:00,
2013-05-28 15:09:00,75.5,65.4,30.06,SE,134,0.0,1.0,71,0.00,,,0.09,654.00,VWS V14.01,2013-05-28 19:09:00,
2013-05-28 15:14:00,75.7,64.8,30.06,SSE,158,0.0,4.0,69,0.00,,,0.09,770.00,VWS V14.01,2013-05-28 19:14:00,
2013-05-28 15:19:00,76.0,65.9,30.06,SE,138,1.0,5.0,71,0.00,,,0.09,786.00,VWS V14.01,2013-05-28 19:19:00,
2013-05-28 15:24:00,76.2,65.7,30.06,SSE,161,0.0,4.0,70,0.00,,,0.09,714.00,VWS V14.01,2013-05-28 19:24:00,
2013-05-28 15:29:00,76.5,66.0,30.06,SSE,148,3.0,4.0,70,0.00,,,0.09,708.00,VWS V14.01,2013-05-28 19:29:00,
2013-05-28 15:34:00,76.4,65.1,30.06,SE,144,0.0,5.0,68,0.00,,,0.09,548.00,VWS V14.01,2013-05-28 19:34:00,
2013-05-28 15:40:00,76.3,65.4,30.05,South,188,0.0,7.0,69,0.00,,,0.09,438.00,VWS V14.01,2013-05-28 19:40:00,
2013-05-28 15:45:00,76.2,66.1,30.05,South,172,4.0,6.0,71,0.00,,,0.09,591.00,VWS V14.01,2013-05-28 19:45:00,
2013-05-28 15:50:00,76.3,66.6,30.05,SE,145,0.0,5.0,72,0.00,,,0.09,628.00,VWS V14.01,2013-05-28 19:50:00,
2013-05-28 15:55:00,76.6,66.9,30.05,SE,146,0.0,3.0,72,0.00,,,0.09,663.00,VWS V14.01,2013-05-28 19:55:00,
2013-05-28 16:00:00,77.0,67.3,30.05,SE,131,4.0,4.0,72,0.00,,,0.09,543.00,VWS V14.01,2013-05-28 20:00:00,
2013-05-28 16:05:00,77.2,66.7,30.05,SSE,152,1.0,4.0,70,0.00,,,0.09,649.00,VWS V14.01,2013-05-28 20:05:00,
2013-05-28 16:10:00,77.5,66.5,30.05,South,183,1.0,6.0,69,0.00,,,0.09,631.00,VWS V14.01,2013-05-28 20:10:00,
2013-05-28 16:15:00,77.7,66.7,30.06,SSE,161,0.0,4.0,69,0.00,,,0.09,626.00,VWS V14.01,2013-05-28 20:15:00,
2013-05-28 16:20:00,77.9,66.5,30.05,SSE,155,1.0,7.0,68,0.00,,,0.09,638.00,VWS V14.01,2013-05-28 20:20:00,
2013-05-28 16:25:00,78.1,66.7,30.05,SSW,198,3.0,5.0,68,0.00,,,0.09,640.00,VWS V14.01,2013-05-28 20:25:00,
2013-05-28 16:30:00,78.4,67.8,30.05,ESE,122,4.0,5.0,70,0.00,,,0.09,700.00,VWS V14.01,2013-05-28 20:30:00,
2013-05-28 16:35:00,78.4,67.0,30.05,SSW,205,3.0,6.0,68,0.00,,,0.09,315.00,VWS V14.01,2013-05-28 20:35:00,
2013-05-28 16:40:00,78.0,66.6,30.04,South,188,0.0,1.0,68,0.00,,,0.09,334.00,VWS V14.01,2013-05-28 20:40:00,
2013-05-28 16:45:00,77.8,66.8,30.04,South,180,1.0,3.0,69,0.00,,,0.09,297.00,VWS V14.01,2013-05-28 20:45:00,
2013-05-28 16:51:00,77.5,66.5,30.04,SW,217,4.0,6.0,69,0.00,,,0.09,302.00,VWS V14.01,2013-05-28 20:51:00,
2013-05-28 16:56:00,77.4,66.4,30.04,South,171,0.0,1.0,69,0.00,,,0.09,294.00,VWS V14.01,2013-05-28 20:56:00,
2013-05-28 17:01:00,77.3,67.2,30.04,South,176,0.0,0.0,71,0.00,,,0.09,287.00,VWS V14.01,2013-05-28 21:01:00,
2013-05-28 17:06:00,77.4,66.9,30.04,SSE,151,0.0,0.0,70,0.00,,,0.09,279.00,VWS V14.01,2013-05-28 21:06:00,
2013-05-28 17:11:00,77.6,67.1,30.04,South,188,3.0,3.0,70,0.00,,,0.09,257.00,VWS V14.01,2013-05-28 21:11:00,
2013-05-28 17:16:00,77.6,67.5,30.03,South,186,1.0,3.0,71,0.00,,,0.09,218.00,VWS V14.01,2013-05-28 21:16:00,
2013-05-28 17:21:00,77.5,67.4,30.04,SSW,200,1.0,1.0,71,0.00,,,0.09,199.00,VWS V14.01,2013-05-28 21:21:00,
2013-05-28 17:26:00,77.4,67.3,30.04,SE,146,2.0,5.0,71,0.00,,,0.09,172.00,VWS V14.01,2013-05-28 21:26:00,
2013-05-28 17:31:00,77.4,67.7,30.04,SSE,156,0.0,0.0,72,0.00,,,0.09,171.00,VWS V14.01,2013-05-28 21:31:00,
2013-05-28 17:36:00,77.3,67.6,30.03,South,184,0.0,2.0,72,0.00,,,0.09,221.00,VWS V14.01,2013-05-28 21:36:00,
2013-05-28 17:41:00,77.5,67.8,30.03,South,184,0.0,1.0,72,0.00,,,0.09,271.00,VWS V14.01,2013-05-28 21:41:00,
2013-05-28 17:47:00,77.7,68.0,30.03,SE,138,0.0,2.0,72,0.00,,,0.09,308.00,VWS V14.01,2013-05-28 21:47:00,
2013-05-28 17:52:00,77.9,68.2,30.03,SE,137,0.0,1.0,72,0.00,,,0.09,283.00,VWS V14.01,2013-05-28 21:52:00,
2013-05-28 17:57:00,78.0,68.2,30.03,SE,138,0.0,1.0,72,0.00,,,0.09,234.00,VWS V14.01,2013-05-28 21:57:00,
2013-05-28 18:02:00,78.1,68.3,30.03,SE,138,0.0,0.0,72,0.00,,,0.09,188.00,VWS V14.01,2013-05-28 22:02:00,
2013-05-28 18:07:00,78.0,68.7,30.02,SE,137,0.0,0.0,73,0.00,,,0.09,144.00,VWS V14.01,2013-05-28 22:07:00,
2013-05-28 18:12:00,77.8,68.5,30.02,SE,137,1.0,1.0,73,0.00,,,0.09,109.00,VWS V14.01,2013-05-28 22:12:00,
2013-05-28 18:17:00,77.6,68.3,30.02,SE,136,0.0,0.0,73,0.00,,,0.09,90.00,VWS V14.01,2013-05-28 22:17:00,
2013-05-28 18:22:00,77.5,68.2,30.02,SE,136,0.0,0.0,73,0.00,,,0.09,77.00,VWS V14.01,2013-05-28 22:22:00,
2013-05-28 18:27:00,77.4,68.1,30.02,SE,136,0.0,0.0,73,0.00,,,0.09,74.00,VWS V14.01,2013-05-28 22:27:00,
2013-05-28 18:32:00,77.4,68.5,30.03,SE,136,0.0,0.0,74,0.00,,,0.09,58.00,VWS V14.01,2013-05-28 22:32:00,
2013-05-28 18:37:00,77.3,68.4,30.02,SE,136,1.0,1.0,74,0.00,,,0.09,33.00,VWS V14.01,2013-05-28 22:37:00,
2013-05-28 18:43:00,77.2,68.3,30.02,SE,136,0.0,0.0,74,0.00,,,0.09,26.00,VWS V14.01,2013-05-28 22:43:00,
2013-05-28 18:48:00,77.0,68.1,30.02,SE,136,0.0,0.0,74,0.00,,,0.09,42.00,VWS V14.01,2013-05-28 22:48:00,
2013-05-28 18:53:00,76.9,68.4,30.02,SE,136,0.0,0.0,75,0.00,,,0.09,44.00,VWS V14.01,2013-05-28 22:53:00,
2013-05-28 18:58:00,76.7,68.2,30.02,SE,136,0.0,0.0,75,0.00,,,0.09,53.00,VWS V14.01,2013-05-28 22:58:00,
2013-05-28 19:03:00,76.5,68.0,30.01,SE,136,0.0,1.0,75,0.00,,,0.09,58.00,VWS V14.01,2013-05-28 23:03:00,
2013-05-28 19:08:00,76.4,68.3,30.01,SE,136,0.0,0.0,76,0.00,,,0.09,51.00,VWS V14.01,2013-05-28 23:08:00,
2013-05-28 19:13:00,76.2,68.1,30.01,SE,136,0.0,0.0,76,0.00,,,0.09,54.00,VWS V14.01,2013-05-28 23:13:00,
2013-05-28 19:18:00,76.0,68.3,30.02,SE,136,0.0,1.0,77,0.00,,,0.09,81.00,VWS V14.01,2013-05-28 23:18:00,
2013-05-28 19:23:00,75.8,68.1,30.02,SE,136,0.0,1.0,77,0.00,,,0.09,127.00,VWS V14.01,2013-05-28 23:23:00,
2013-05-28 19:28:00,75.7,68.0,30.02,SE,135,0.0,0.0,77,0.00,,,0.09,109.00,VWS V14.01,2013-05-28 23:28:00,
2013-05-28 19:33:00,75.6,67.9,30.01,SE,135,0.0,2.0,77,0.00,,,0.09,79.00,VWS V14.01,2013-05-28 23:33:00,
2013-05-28 19:39:00,75.6,67.9,30.01,SE,136,0.0,1.0,77,0.00,,,0.09,67.00,VWS V14.01,2013-05-28 23:39:00,
2013-05-28 19:44:00,75.5,67.8,30.01,East,94,1.0,1.0,77,0.00,,,0.09,53.00,VWS V14.01,2013-05-28 23:44:00,
2013-05-28 19:49:00,75.4,67.3,30.01,SE,129,0.0,3.0,76,0.00,,,0.09,47.00,VWS V14.01,2013-05-28 23:49:00,
2013-05-28 19:54:00,75.3,67.2,30.01,SE,128,1.0,1.0,76,0.00,,,0.09,42.00,VWS V14.01,2013-05-28 23:54:00,
2013-05-28 19:59:00,75.2,67.5,30.01,SE,130,0.0,2.0,77,0.00,,,0.09,39.00,VWS V14.01,2013-05-28 23:59:00,
2013-05-28 20:04:00,75.1,67.0,30.01,SE,130,0.0,1.0,76,0.00,,,0.09,32.00,VWS V14.01,2013-05-29 00:04:00,
2013-05-28 20:09:00,75.0,67.3,30.01,SE,130,0.0,1.0,77,0.00,,,0.09,23.00,VWS V14.01,2013-05-29 00:09:00,
2013-05-28 20:14:00,74.8,67.1,30.01,SE,131,0.0,1.0,77,0.00,,,0.09,14.00,VWS V14.01,2013-05-29 00:14:00,
2013-05-28 20:19:00,74.6,66.9,30.01,SE,136,0.0,4.0,77,0.00,,,0.09,11.00,VWS V14.01,2013-05-29 00:19:00,
2013-05-28 20:25:00,74.3,67.0,30.02,SE,130,1.0,5.0,78,0.00,,,0.09,7.00,VWS V14.01,2013-05-29 00:25:00,
2013-05-28 20:30:00,74.1,66.8,30.01,SE,136,0.0,4.0,78,0.00,,,0.09,0.00,VWS V14.01,2013-05-29 00:30:00,
2013-05-28 20:35:00,73.9,67.0,30.01,SE,136,0.0,2.0,79,0.00,,,0.09,5.00,VWS V14.01,2013-05-29 00:35:00,
2013-05-28 20:40:00,73.7,66.8,30.01,SSE,148,0.0,4.0,79,0.00,,,0.09,0.00,VWS V14.01,2013-05-29 00:40:00,
2013-05-28 20:45:00,73.5,67.0,30.01,SE,140,0.0,2.0,80,0.00,,,0.09,0.00,VWS V14.01,2013-05-29 00:45:00,
2013-05-28 20:50:00,73.3,66.8,30.01,SE,133,2.0,5.0,80,0.00,,,0.09,0.00,VWS V14.01,2013-05-29 00:50:00,
2013-05-28 20:55:00,73.0,66.8,30.00,SE,141,5.0,6.0,81,0.00,,,0.09,0.00,VWS V14.01,2013-05-29 00:55:00,
2013-05-28 21:00:00,72.9,66.7,30.00,SE,140,2.0,2.0,81,0.00,,,0.09,0.00,VWS V14.01,2013-05-29 01:00:00,
2013-05-28 21:05:00,72.7,66.5,30.00,SE,128,0.0,3.0,81,0.00,,,0.09,0.00,VWS V14.01,2013-05-29 01:05:00,
2013-05-28 21:10:00,72.5,66.3,30.00,SE,137,0.0,1.0,81,0.00,,,0.09,0.00,VWS V14.01,2013-05-29 01:10:00,
2013-05-28 21:15:00,72.4,66.6,30.01,SE,137,0.0,3.0,82,0.00,,,0.09,0.00,VWS V14.01,2013-05-29 01:15:00,
2013-05-28 21:20:00,72.2,66.4,30.01,SSE,150,0.0,3.0,82,0.00,,,0.09,0.00,VWS V14.01,2013-05-29 01:20:00,
2013-05-28 21:25:00,72.1,66.3,30.01,SSE,149,0.0,1.0,82,0.00,,,0.09,0.00,VWS V14.01,2013-05-29 01:25:00,
2013-05-28 21:30:00,71.9,66.5,30.01,SSE,150,0.0,1.0,83,0.00,,,0.09,0.00,VWS V14.01,2013-05-29 01:30:00,
2013-05-28 21:35:00,71.8,66.4,30.01,SSE,150,1.0,1.0,83,0.00,,,0.09,0.00,VWS V14.01,2013-05-29 01:35:00,
2013-05-28 21:40:00,71.6,66.2,30.01,SSE,150,0.0,0.0,83,0.00,,,0.09,0.00,VWS V14.01,2013-05-29 01:40:00,
2013-05-28 21:46:00,71.5,66.4,30.02,SSE,149,0.0,0.0,84,0.00,,,0.09,0.00,VWS V14.01,2013-05-29 01:46:00,
2013-05-28 21:51:00,71.4,66.3,30.02,SSE,149,0.0,0.0,84,0.00,,,0.09,0.00,VWS V14.01,2013-05-29 01:51:00,
2013-05-28 21:56:00,71.3,66.2,30.02,SSE,149,0.0,0.0,84,0.00,,,0.09,0.00,VWS V14.01,2013-05-29 01:56:00,
2013-05-28 22:01:00,71.2,66.1,30.02,SSE,150,0.0,0.0,84,0.00,,,0.09,0.00,VWS V14.01,2013-05-29 02:01:00,
2013-05-28 22:06:00,71.1,66.0,30.02,SSE,150,0.0,0.0,84,0.00,,,0.09,0.00,VWS V14.01,2013-05-29 02:06:00,
2013-05-28 22:11:00,70.9,65.8,30.02,SSE,149,0.0,0.0,84,0.00,,,0.09,0.00,VWS V14.01,2013-05-29 02:11:00,
2013-05-28 22:16:00,70.8,65.7,30.02,SSE,149,0.0,0.0,84,0.00,,,0.09,0.00,VWS V14.01,2013-05-29 02:16:00,
2013-05-28 22:21:00,70.6,65.9,30.02,SSE,150,0.0,3.0,85,0.00,,,0.09,0.00,VWS V14.01,2013-05-29 02:21:00,
2013-05-28 22:26:00,70.4,65.7,30.02,SSE,150,0.0,0.0,85,0.00,,,0.09,0.00,VWS V14.01,2013-05-29 02:26:00,
2013-05-28 22:31:00,70.3,65.6,30.02,SSE,149,0.0,0.0,85,0.00,,,0.09,0.00,VWS V14.01,2013-05-29 02:31:00,
2013-05-28 22:36:00,70.1,65.7,30.02,SSE,150,0.0,0.0,86,0.00,,,0.09,0.00,VWS V14.01,2013-05-29 02:36:00,
2013-05-28 22:42:00,69.9,65.5,30.02,SSE,150,0.0,0.0,86,0.00,,,0.09,0.00,VWS V14.01,2013-05-29 02:42:00,
2013-05-28 22:47:00,69.8,65.4,30.02,SSE,150,0.0,0.0,86,0.00,,,0.09,0.00,VWS V14.01,2013-05-29 02:47:00,
2013-05-28 22:52:00,69.6,65.6,30.03,South,190,0.0,3.0,87,0.00,,,0.09,0.00,VWS V14.01,2013-05-29 02:52:00,
2013-05-28 22:57:00,69.5,65.5,30.03,SSW,196,0.0,2.0,87,0.00,,,0.09,0.00,VWS V14.01,2013-05-29 02:57:00,
2013-05-28 23:02:00,69.4,65.4,30.03,SSW,196,0.0,1.0,87,0.00,,,0.09,0.00,VWS V14.01,2013-05-29 03:02:00,
2013-05-28 23:07:00,69.4,65.4,30.03,SSW,196,0.0,1.0,87,0.00,,,0.09,0.00,VWS V14.01,2013-05-29 03:07:00,
2013-05-28 23:12:00,69.3,65.3,30.03,SSW,196,0.0,0.0,87,0.00,,,0.09,0.00,VWS V14.01,2013-05-29 03:12:00,
2013-05-28 23:17:00,69.3,65.3,30.03,SSW,196,0.0,0.0,87,0.00,,,0.09,0.00,VWS V14.01,2013-05-29 03:17:00,
2013-05-28 23:22:00,69.3,65.3,30.02,SSW,196,0.0,0.0,87,0.00,,,0.09,0.00,VWS V14.01,2013-05-29 03:22:00,
2013-05-28 23:28:00,69.2,65.2,30.02,SSW,196,0.0,2.0,87,0.00,,,0.09,0.00,VWS V14.01,2013-05-29 03:28:00,
2013-05-28 23:33:00,69.1,65.1,30.02,SSW,196,0.0,0.0,87,0.00,,,0.09,0.00,VWS V14.01,2013-05-29 03:33:00,
2013-05-28 23:38:00,69.1,65.1,30.02,SSW,197,0.0,0.0,87,0.00,,,0.09,0.00,VWS V14.01,2013-05-29 03:38:00,
2013-05-28 23:43:00,69.1,65.1,30.02,SSW,197,1.0,1.0,87,0.00,,,0.09,0.00,VWS V14.01,2013-05-29 03:43:00,
2013-05-28 23:48:00,69.0,65.0,30.02,SSW,197,0.0,0.0,87,0.00,,,0.09,0.00,VWS V14.01,2013-05-29 03:48:00,
2013-05-28 23:53:00,69.0,65.0,30.02,SSW,196,0.0,0.0,87,0.00,,,0.09,0.00,VWS V14.01,2013-05-29 03:53:00,
2013-05-28 23:58:00,68.9,64.9,30.02,SSW,197,0.0,0.0,87,0.00,,,0.09,0.00,VWS V14.01,2013-05-29 03:58:00,